Weather Roundup
Issued by NWS Chicago, IL

Home | Current Version | Previous Version | Text Only | Print | Product List | Glossary Off
Versions: 1 2 3 4 5 6 7 8 9 10 11 12 13 14 15 16 17 18 19 20 21 22 23 24 25 26 27 28 29 30 31 32 33 34 35 36 37 38 39 40 41 42 43 44 45 46 47 48 49 50

000
NZUS59 KLOT 121508
HRRLOT

CHICAGO AREA WEATHER ROUNDUP
NATIONAL WEATHER SERVICE CHICAGO/ROMEOVILLE IL
900 AM CST TUE DEC 12 2017

NOTE: "FAIR" INDICATES FEW OR NO CLOUDS BELOW 12,000 FEET WITH NO
SIGNIFICANT WEATHER AND/OR OBSTRUCTIONS TO VISIBILITY.

* THESE STATIONS ARE NOT UNDER NWS QUALITY CONTROL. THEY ALSO MAY NOT
  REPORT WEATHER SUCH AS PRECIPITATION OR FOG.

ILZ005-006-012>014-019>023-121600-
NORTHEAST ILLINOIS

CITY           SKY/WX    TMP DP  RH WIND       PRES   REMARKS
OHARE          MOSUNNY   18   6  59 NW20G29   30.09R WCI   2
MIDWAY         MOSUNNY   19   7  59 NW21G26   30.10R WCI   3
AURORA         SUNNY     17   8  67 NW13      30.12R WCI   4
LANSING*       MOSUNNY   20  10  65 NW15G22   30.09R WCI   6
WAUKEGAN       MOSUNNY   17   6  62 NW13G21   30.07R WCI   4
DUPAGE AIRPORT SUNNY     17   8  67 NW20G29   30.09R WCI   1
WHEELING       SUNNY     18   6  59 NW17      30.10R WCI   3
KANKAKEE*      SUNNY     20   7  56 NW16G23   30.12R WCI   6
MORRIS*        SUNNY     19  10  69 NW12G17   30.13R WCI   6
LEWIS AIRPORT* SUNNY     18   9  66 NW16G23   30.11R WCI   3
NORTHERLY ISL    N/A     20   8  60 W13         N/A  WCI   7
$$

WIZ051-052-058>065-066-070>072-121600-
SOUTHEAST WISCONSIN

CITY           SKY/WX    TMP DP  RH WIND       PRES   REMARKS
MILWAUKEE      PTSUNNY   18   6  59 NW13G23   30.06R WCI   5
KENOSHA*       PTSUNNY   17   5  59 NW14G22   30.07R WCI   3
RACINE*        PTSUNNY   17   6  62 NW13G22   30.08R WCI   4
BURLINGTON     SUNNY     31  24  76 NW12      30.08S WCI  22
WAUKESHA       MOSUNNY   14   5  67 NW12G18   30.07R WCI   0
WEST BEND      CLOUDY    16   9  73 W12       30.05R WCI   3
$$

INZ001>003-010>013-019-020-121600-
NORTHWEST INDIANA

CITY           SKY/WX    TMP DP  RH WIND       PRES   REMARKS
GARY*          PTSUNNY   21   7  53 W17G35    30.08R WCI   7
MICHIGAN CITY* NOT AVBL
RENSSELAER*    NOT AVBL
VALPARAISO     LGT SNOW  21  14  74 NW16G25   30.03R WCI   7
$$

LMZ740>746-121600-
SOUTHERN LAKE MICHIGAN

STATION/POSITION TIME  SKY/WX   TEMP WIND        PRES    VSBY
                                AIR  DIR/SP/G
                 (UTC)          (F)  (DEG/KT/KT) (MB)    (MI)
HARRISON CRIB    1440            19  310/ 23/ 25   N/A
BURNHAM HARBOR   1500            20  300/ 14/ 21   N/A
CALUMET HARBOR   1442            18  300/ 14/ 20 1017.9R
BURNS HARBOR     1440            24  320/ 18/ 28 1017.3R
MICHIGAN CITY    1440            24  310/ 29/ 35   N/A
$$

ABBREVIATIONS USED IN REMARKS
   TC - TEMPERATURE IN CELSIUS
  WCI - WIND CHILL INDEX
   HX - HEAT INDEX
  VSB - VISIBILITY
$$



USA.gov is the U.S. government's official web portal to all federal, state and local government web resources and services.